Myrtle Beach, SC

3:22 PM EDT on May 23, 2017 (GMT -0400)
Myrtle Beach International

Weather History for KMYR - December, 2012

Change the Weather History Date:

Wednesday, December 5, 2012

  Actual Average Record
Temperature  
Mean Temperature 62 °F -  
Max Temperature 75 °F 59 °F 75 °F (1998)
Min Temperature 48 °F 39 °F 24 °F (1989)
Degree Days  
Heating Degree Days 4    
Growing Degree Days 12 (Base 50)    
Moisture  
Dew Point 55 °F    
Average Humidity 86    
Maximum Humidity 100    
Minimum Humidity 44    
Precipitation  
Precipitation 0.00 in - - ()
Sea Level Pressure  
Sea Level Pressure 30.18 in    
Wind  
Wind Speed 5 mph (West)    
Max Wind Speed 12 mph    
Max Gust Speed -    
Visibility 9 miles    
Events      
Averages and records for this station are not official NWS values.
T = Trace of Precipitation, MM = Missing Value Source: NWS Daily Summary

Daily Weather History Graph

Daily Weather History Graph

Search for Another Location

Airport or City:

Trip Planner

Search our weather history database for the weather conditions in past years. The results will help you decide how hot, cold, wet, or windy it might be!

Date:

Astronomy

Dec. 05, 2012 Rise Set
Actual Time 7:05 AM EST 5:07 PM EST
Civil Twilight 6:38 AM EST 5:34 PM EST
Nautical Twilight 6:07 AM EST 6:05 PM EST
Astronomical Twilight 5:37 AM EST 6:35 PM EST
Moon 11:40 PM EST (12/5) 11:41 AM EST (12/5)
Length of Visible Light 10h 55m
Length of Day
10h 01m
Waning Gibbous, 60% of the Moon is Illuminated
Dec 5
Waning Gibbous
Dec 6
Last Quarter
Dec 13
New
Dec 20
First Quarter
Dec 28
Full

Hourly Weather History & Observations

Time (EST) Temp. Dew Point Humidity Pressure Visibility Wind Dir Wind Speed Gust Speed Precip Events Conditions
12:15 AM 62.6 °F 57.2 °F 82% 30.24 in 10.0 mi SW 4.6 mph - N/A   Clear
12:35 AM 62.6 °F 57.2 °F 82% 30.24 in 10.0 mi SW 4.6 mph - N/A   Clear
12:55 AM 60.8 °F 57.2 °F 88% 30.23 in 10.0 mi WSW 3.5 mph - N/A   Scattered Clouds
1:15 AM 60.8 °F 57.2 °F 88% 30.22 in 10.0 mi WSW 5.8 mph - N/A   Partly Cloudy
1:35 AM 59.0 °F 57.2 °F 94% 30.23 in 10.0 mi West 4.6 mph - N/A   Clear
1:55 AM 57.2 °F 55.4 °F 94% 30.22 in 10.0 mi West 5.8 mph - N/A   Clear
2:15 AM 55.4 °F 55.4 °F 100% 30.22 in 10.0 mi West 5.8 mph - N/A   Clear
2:35 AM 55.4 °F 55.4 °F 100% 30.22 in 10.0 mi West 5.8 mph - N/A   Clear
2:55 AM 55.4 °F 55.4 °F 100% 30.21 in 10.0 mi West 5.8 mph - N/A   Clear
3:15 AM 57.2 °F 55.4 °F 94% 30.21 in 10.0 mi WSW 4.6 mph - N/A   Clear
3:35 AM 57.2 °F 55.4 °F 94% 30.20 in 10.0 mi SW 3.5 mph - N/A   Clear
3:55 AM 57.2 °F 55.4 °F 94% 30.20 in 10.0 mi Calm Calm - N/A   Clear
4:15 AM 55.4 °F 53.6 °F 94% 30.19 in 7.0 mi WSW 3.5 mph - N/A   Clear
4:35 AM 55.4 °F 53.6 °F 94% 30.18 in 10.0 mi Calm Calm - N/A   Clear
4:55 AM 53.6 °F 53.6 °F 100% 30.18 in 5.0 mi Calm Calm - N/A   Clear
5:15 AM 53.6 °F 53.6 °F 100% 30.18 in 0.5 mi Calm Calm - N/A   Unknown
5:35 AM 53.6 °F 53.6 °F 100% 30.19 in 4.0 mi Calm Calm - N/A   Clear
5:55 AM 53.6 °F 53.6 °F 100% 30.19 in 10.0 mi Calm Calm - N/A   Clear
6:54 AM 48.2 °F 48.2 °F 100% 30.20 in 10.0 mi Calm Calm - N/A   Partly Cloudy
7:46 AM 53.6 °F 53.6 °F 100% 30.22 in 7.0 mi Calm Calm - N/A   Clear
9:45 AM 66.2 °F 57.2 °F 73% 30.22 in 10.0 mi West 8.1 mph - N/A   Clear
10:45 AM 69.8 °F 57.2 °F 64% 30.21 in 10.0 mi WSW 11.5 mph - N/A   Clear
11:50 AM 73.4 °F 53.6 °F 50% 30.18 in 10.0 mi West 11.5 mph - N/A   Clear
12:45 PM 75.2 °F 51.8 °F 44% 30.15 in 10.0 mi West 9.2 mph - N/A   Clear
1:45 PM 75.2 °F 51.8 °F 44% 30.12 in 10.0 mi West 11.5 mph - N/A   Clear
2:45 PM 75.2 °F 51.8 °F 44% 30.10 in 10.0 mi NW 11.5 mph - N/A   Clear
3:45 PM 71.6 °F 55.4 °F 57% 30.10 in 10.0 mi South 11.5 mph - N/A   Clear
5:45 PM 62.6 °F 57.2 °F 82% 30.11 in 10.0 mi Calm Calm - N/A   Clear
6:45 PM 57.2 °F 55.4 °F 94% 30.12 in 10.0 mi Calm Calm - N/A   Clear
7:45 PM 55.4 °F 55.4 °F 100% 30.13 in 10.0 mi Calm Calm - N/A   Clear
8:45 PM 55.4 °F 53.6 °F 94% 30.14 in 10.0 mi Calm Calm - N/A   Scattered Clouds
10:55 PM 60.8 °F 59.0 °F 94% 30.16 in 10.0 mi NNE 10.4 mph - N/A   Mostly Cloudy
11:15 PM 60.8 °F 59.0 °F 94% 30.16 in 10.0 mi NNE 10.4 mph - N/A   Mostly Cloudy
11:35 PM 60.8 °F 57.2 °F 88% 30.16 in 10.0 mi NNE 9.2 mph - N/A   Mostly Cloudy
11:55 PM 60.8 °F 59.0 °F 94% 30.16 in 10.0 mi NNE 9.2 mph - N/A   Scattered Clouds